TimeEST,TemperatureF,Dew PointF,Humidity,Sea Level PressureIn,VisibilityMPH,Wind Direction,Wind SpeedMPH,Gust SpeedMPH,PrecipitationIn,Events,Conditions,WindDirDegrees,DateUTC
12:15 AM,30.2,17.6,60,29.71,10.0,North,17.3,25.3,N/A,,Overcast,350,2013-02-17 05:15:00
12:35 AM,30.2,15.8,55,29.70,10.0,North,15.0,-,N/A,,Overcast,350,2013-02-17 05:35:00
12:55 AM,30.2,15.8,55,29.69,10.0,NNW,13.8,-,N/A,,Overcast,340,2013-02-17 05:55:00
1:15 AM,30.2,14.0,51,29.71,10.0,NNW,12.7,-,N/A,,Overcast,330,2013-02-17 06:15:00
1:35 AM,30.2,12.2,47,29.70,10.0,NNW,17.3,21.9,N/A,,Overcast,340,2013-02-17 06:35:00
1:55 AM,30.2,12.2,47,29.69,10.0,NNW,16.1,21.9,N/A,,Overcast,340,2013-02-17 06:55:00
2:15 AM,30.2,12.2,47,29.68,10.0,NNW,15.0,19.6,N/A,,Overcast,340,2013-02-17 07:15:00
2:35 AM,30.2,12.2,47,29.69,10.0,NNW,13.8,23.0,N/A,,Overcast,340,2013-02-17 07:35:00
2:55 AM,28.4,12.2,51,29.68,10.0,NNW,16.1,23.0,N/A,,Overcast,330,2013-02-17 07:55:00
3:15 AM,28.4,12.2,51,29.68,10.0,NNW,18.4,23.0,N/A,,Overcast,330,2013-02-17 08:15:00
3:35 AM,28.4,12.2,51,29.68,10.0,NNW,15.0,-,N/A,,Overcast,330,2013-02-17 08:35:00
3:55 AM,28.4,10.4,47,29.68,10.0,NNW,17.3,21.9,N/A,,Overcast,330,2013-02-17 08:55:00
4:15 AM,28.4,10.4,47,29.67,10.0,NNW,17.3,23.0,N/A,,Overcast,330,2013-02-17 09:15:00
4:35 AM,28.4,10.4,47,29.67,10.0,NNW,16.1,26.5,N/A,,Overcast,330,2013-02-17 09:35:00
4:55 AM,28.4,10.4,47,29.67,10.0,NNW,17.3,23.0,N/A,,Overcast,330,2013-02-17 09:55:00
5:15 AM,28.4,10.4,47,29.67,10.0,NW,16.1,23.0,N/A,,Overcast,320,2013-02-17 10:15:00
5:35 AM,28.4,10.4,47,29.67,10.0,NW,16.1,24.2,N/A,,Overcast,310,2013-02-17 10:35:00
5:55 AM,28.4,8.6,43,29.67,10.0,NW,17.3,27.6,N/A,,Overcast,320,2013-02-17 10:55:00
6:15 AM,28.4,6.8,40,29.67,10.0,NW,18.4,25.3,N/A,,Overcast,320,2013-02-17 11:15:00
6:35 AM,28.4,5.0,37,29.67,10.0,NW,15.0,28.8,N/A,,Overcast,310,2013-02-17 11:35:00
6:55 AM,28.4,3.2,34,29.68,10.0,NW,19.6,28.8,N/A,,Overcast,310,2013-02-17 11:55:00
7:15 AM,26.6,3.2,37,29.69,10.0,NW,18.4,26.5,N/A,,Mostly Cloudy,320,2013-02-17 12:15:00
7:35 AM,26.6,3.2,37,29.69,10.0,WNW,18.4,24.2,N/A,,Partly Cloudy,300,2013-02-17 12:35:00
7:55 AM,26.6,3.2,37,29.70,10.0,NW,20.7,27.6,N/A,,Clear,310,2013-02-17 12:55:00
8:15 AM,28.4,3.2,34,29.69,10.0,NW,19.6,29.9,N/A,,Clear,310,2013-02-17 13:15:00
8:35 AM,28.4,3.2,34,29.69,10.0,NW,24.2,31.1,N/A,,Clear,310,2013-02-17 13:35:00
8:55 AM,28.4,3.2,34,29.69,10.0,NW,21.9,29.9,N/A,,Clear,310,2013-02-17 13:55:00
9:15 AM,30.2,3.2,32,29.70,10.0,NW,25.3,32.2,N/A,,Clear,310,2013-02-17 14:15:00
9:35 AM,30.2,3.2,32,29.70,10.0,NW,23.0,34.5,N/A,,Clear,320,2013-02-17 14:35:00
9:55 AM,30.2,3.2,32,29.70,10.0,NW,24.2,34.5,N/A,,Clear,320,2013-02-17 14:55:00
10:15 AM,30.2,3.2,32,29.70,10.0,NW,25.3,33.4,N/A,,Clear,320,2013-02-17 15:15:00
10:35 AM,30.2,3.2,32,29.71,10.0,WNW,27.6,32.2,N/A,,Clear,300,2013-02-17 15:35:00
10:55 AM,30.2,3.2,32,29.71,10.0,NW,26.5,34.5,N/A,,Clear,310,2013-02-17 15:55:00
11:15 AM,32.0,3.2,30,29.72,10.0,WNW,28.8,39.1,N/A,,Clear,290,2013-02-17 16:15:00
11:35 AM,32.0,3.2,30,29.72,10.0,WNW,21.9,35.7,N/A,,Clear,300,2013-02-17 16:35:00
11:55 AM,32.0,3.2,30,29.72,10.0,NW,26.5,39.1,N/A,,Clear,310,2013-02-17 16:55:00
12:15 PM,32.0,3.2,30,29.72,10.0,NW,19.6,31.1,N/A,,Clear,310,2013-02-17 17:15:00
12:35 PM,32.0,3.2,30,29.72,10.0,WNW,24.2,33.4,N/A,,Clear,300,2013-02-17 17:35:00
12:55 PM,33.8,3.2,28,29.73,10.0,West,20.7,31.1,N/A,,Scattered Clouds,280,2013-02-17 17:55:00
1:15 PM,33.8,3.2,28,29.73,10.0,WNW,26.5,35.7,N/A,,Mostly Cloudy,300,2013-02-17 18:15:00
1:35 PM,30.2,1.4,29,29.74,10.0,WNW,18.4,34.5,N/A,,Mostly Cloudy,300,2013-02-17 18:35:00
1:55 PM,30.2,3.2,32,29.74,10.0,WNW,18.4,29.9,N/A,,Mostly Cloudy,290,2013-02-17 18:55:00
2:15 PM,30.2,3.2,32,29.74,10.0,NW,20.7,34.5,N/A,,Overcast,310,2013-02-17 19:15:00
2:35 PM,30.2,3.2,32,29.75,10.0,WNW,24.2,35.7,N/A,,Overcast,300,2013-02-17 19:35:00
2:55 PM,30.2,1.4,29,29.75,10.0,NW,24.2,31.1,N/A,,Overcast,310,2013-02-17 19:55:00
3:15 PM,30.2,1.4,29,29.76,10.0,NW,25.3,36.8,N/A,,Mostly Cloudy,310,2013-02-17 20:15:00
3:35 PM,30.2,3.2,32,29.77,10.0,NW,25.3,39.1,N/A,,Mostly Cloudy,310,2013-02-17 20:35:00
3:55 PM,30.2,1.4,29,29.77,10.0,WNW,24.2,38.0,N/A,,Overcast,290,2013-02-17 20:55:00
4:15 PM,28.4,1.4,31,29.78,10.0,NW,24.2,38.0,N/A,,Mostly Cloudy,310,2013-02-17 21:15:00
4:35 PM,28.4,3.2,34,29.79,10.0,NW,23.0,34.5,N/A,,Overcast,320,2013-02-17 21:35:00
4:55 PM,28.4,3.2,34,29.80,10.0,NW,23.0,32.2,N/A,,Mostly Cloudy,310,2013-02-17 21:55:00
5:15 PM,28.4,3.2,34,29.81,10.0,WNW,21.9,34.5,N/A,,Mostly Cloudy,300,2013-02-17 22:15:00
5:35 PM,26.6,6.8,43,29.82,10.0,NW,21.9,29.9,N/A,,Mostly Cloudy,310,2013-02-17 22:35:00
5:55 PM,26.6,6.8,43,29.84,10.0,WNW,23.0,34.5,N/A,,Mostly Cloudy,300,2013-02-17 22:55:00
6:15 PM,26.6,3.2,37,29.85,10.0,NW,18.4,32.2,N/A,,Scattered Clouds,310,2013-02-17 23:15:00
6:35 PM,26.6,3.2,37,29.86,10.0,WNW,15.0,29.9,N/A,,Partly Cloudy,300,2013-02-17 23:35:00
6:55 PM,26.6,5.0,40,29.87,10.0,WNW,19.6,27.6,N/A,,Partly Cloudy,290,2013-02-17 23:55:00
7:15 PM,24.8,5.0,43,29.88,10.0,WNW,16.1,28.8,N/A,,Clear,300,2013-02-18 00:15:00
7:35 PM,24.8,5.0,43,29.89,10.0,NW,18.4,26.5,N/A,,Clear,310,2013-02-18 00:35:00
7:55 PM,24.8,3.2,40,29.91,10.0,NW,15.0,28.8,N/A,,Clear,310,2013-02-18 00:55:00
8:15 PM,24.8,3.2,40,29.92,10.0,NW,17.3,23.0,N/A,,Clear,320,2013-02-18 01:15:00
8:35 PM,24.8,3.2,40,29.93,10.0,NW,19.6,31.1,N/A,,Clear,310,2013-02-18 01:35:00
8:55 PM,24.8,1.4,36,29.94,10.0,NW,21.9,26.5,N/A,,Clear,310,2013-02-18 01:55:00
9:15 PM,23.0,1.4,39,29.95,10.0,NW,18.4,32.2,N/A,,Clear,310,2013-02-18 02:15:00
9:35 PM,23.0,1.4,39,29.96,10.0,WNW,19.6,31.1,N/A,,Clear,300,2013-02-18 02:35:00
9:55 PM,21.2,1.4,42,29.97,10.0,WNW,21.9,31.1,N/A,,Clear,300,2013-02-18 02:55:00
10:15 PM,21.2,-0.4,39,29.98,10.0,WNW,23.0,31.1,N/A,,Clear,290,2013-02-18 03:15:00
10:35 PM,21.2,-0.4,39,29.99,10.0,NW,21.9,26.5,N/A,,Clear,310,2013-02-18 03:35:00
10:55 PM,19.4,-0.4,42,29.99,10.0,NW,20.7,38.0,N/A,,Clear,310,2013-02-18 03:55:00
11:15 PM,19.4,-0.4,42,30.00,10.0,WNW,19.6,28.8,N/A,,Clear,300,2013-02-18 04:15:00
11:35 PM,19.4,-0.4,42,30.01,10.0,WNW,19.6,28.8,N/A,,Clear,290,2013-02-18 04:35:00
11:55 PM,19.4,-0.4,42,30.02,10.0,WNW,28.8,33.4,N/A,,Clear,290,2013-02-18 04:55:00